Simultaneous Nadir Overpasses (SNOs) Predictions

Prediction of SNOs between GOES-15 and NPP Satellite Orbit:

Table of predicted SNOs for the next 14.0 days since TLE Epoch: 3/1/2012
Index Date Time (GOES-15) GOES-15 Lat,Lon NPP Lat,Lon Distance(km) Time Diff (sec)
1 03/03/2012 22:27:01 -0.04,-135.42 -0.19,-136.02 69.27 80
2 03/04/2012 22:10:56 -0.05,-135.41 0.82,-131.49 446.31 80
3 03/06/2012 10:30:04 0.05,-135.40 0.37,-136.77 156.13 80
4 03/07/2012 10:14:00 0.05,-135.39 -0.64,-132.24 359.10 80
5 03/08/2012 22:33:16 -0.05,-135.38 -0.55,-137.55 247.46 80
6 03/09/2012 22:17:12 -0.05,-135.37 0.46,-133.02 267.34 80
7 03/11/2012 10:36:20 0.05,-135.34 0.73,-138.29 336.52 80
8 03/12/2012 10:20:16 0.05,-135.33 -0.27,-133.76 177.79 80
9 03/13/2012 22:39:32
